<?xml version="1.0" encoding="UTF-8" standalone="no" ?>
<gpx xmlns="http://www.topografix.com/GPX/1/1" xmlns:xsi="http://www.w3.org/2001/XMLSchema-instance" xsi:schemaLocation="http://www.topografix.com/GPX/1/1 http://www.topografix.com/GPX/1/1/gpx.xsd" version="1.1" creator="VisuGPX - https://www.visugpx.com">
  <metadata>
    <name>val-deygues-pays-de-nyons</name>
    <desc><![CDATA[https://sitesvtt.ffc.fr/trace-vtt/val-deygues-pays-de-nyons-6/]]></desc>
  </metadata>
  <trk>
    <name><![CDATA[8-MNT- TraceGps.com issued]]></name>
    <trkseg>
      <trkpt lat="44.36019" lon="5.1398">
        <ele>267.986755</ele>
        <time>2007-11-18T19:43:57Z</time>
      </trkpt>
      <trkpt lat="44.35915" lon="5.14043">
        <ele>264.169403</ele>
        <time>2007-11-18T19:43:57Z</time>
      </trkpt>
      <trkpt lat="44.35841" lon="5.14119">
        <ele>261.045288</ele>
        <time>2007-11-18T19:43:57Z</time>
      </trkpt>
      <trkpt lat="44.35786" lon="5.14177">
        <ele>273.808807</ele>
        <time>2007-11-18T19:43:57Z</time>
      </trkpt>
      <trkpt lat="44.35843" lon="5.14264">
        <ele>277.201721</ele>
        <time>2007-11-18T19:43:57Z</time>
      </trkpt>
      <trkpt lat="44.35894" lon="5.14331">
        <ele>282.336731</ele>
        <time>2007-11-18T19:43:57Z</time>
      </trkpt>
      <trkpt lat="44.35935" lon="5.14416">
        <ele>279.788635</ele>
        <time>2007-11-18T19:43:57Z</time>
      </trkpt>
      <trkpt lat="44.35917" lon="5.14553">
        <ele>277.44397</ele>
        <time>2007-11-18T19:43:57Z</time>
      </trkpt>
      <trkpt lat="44.35868" lon="5.14623">
        <ele>282.865265</ele>
        <time>2007-11-18T19:43:57Z</time>
      </trkpt>
      <trkpt lat="44.35861" lon="5.14655">
        <ele>287.213715</ele>
        <time>2007-11-18T19:43:57Z</time>
      </trkpt>
      <trkpt lat="44.35796" lon="5.14628">
        <ele>304.516693</ele>
        <time>2007-11-18T19:43:57Z</time>
      </trkpt>
      <trkpt lat="44.35762" lon="5.14557">
        <ele>312.496857</ele>
        <time>2007-11-18T19:43:57Z</time>
      </trkpt>
      <trkpt lat="44.35804" lon="5.14488">
        <ele>317.97168</ele>
        <time>2007-11-18T19:43:57Z</time>
      </trkpt>
      <trkpt lat="44.35831" lon="5.14435">
        <ele>321.160553</ele>
        <time>2007-11-18T19:43:57Z</time>
      </trkpt>
      <trkpt lat="44.35788" lon="5.14338">
        <ele>332.001007</ele>
        <time>2007-11-18T19:43:57Z</time>
      </trkpt>
      <trkpt lat="44.35723" lon="5.1431">
        <ele>336.75058</ele>
        <time>2007-11-18T19:43:57Z</time>
      </trkpt>
      <trkpt lat="44.35637" lon="5.14302">
        <ele>345.625122</ele>
        <time>2007-11-18T19:43:57Z</time>
      </trkpt>
      <trkpt lat="44.35577" lon="5.14338">
        <ele>356.888092</ele>
        <time>2007-11-18T19:43:57Z</time>
      </trkpt>
      <trkpt lat="44.35539" lon="5.1445">
        <ele>364.07016</ele>
        <time>2007-11-18T19:43:57Z</time>
      </trkpt>
      <trkpt lat="44.35471" lon="5.14465">
        <ele>369.869324</ele>
        <time>2007-11-18T19:43:57Z</time>
      </trkpt>
      <trkpt lat="44.35395" lon="5.14476">
        <ele>377.950317</ele>
        <time>2007-11-18T19:43:57Z</time>
      </trkpt>
      <trkpt lat="44.35351" lon="5.14527">
        <ele>380.757813</ele>
        <time>2007-11-18T19:43:57Z</time>
      </trkpt>
      <trkpt lat="44.35256" lon="5.14463">
        <ele>392.198608</ele>
        <time>2007-11-18T19:43:57Z</time>
      </trkpt>
      <trkpt lat="44.3518" lon="5.14449">
        <ele>398.191528</ele>
        <time>2007-11-18T19:43:57Z</time>
      </trkpt>
      <trkpt lat="44.35126" lon="5.14401">
        <ele>401.587799</ele>
        <time>2007-11-18T19:43:57Z</time>
      </trkpt>
      <trkpt lat="44.35066" lon="5.14344">
        <ele>404.892639</ele>
        <time>2007-11-18T19:43:57Z</time>
      </trkpt>
      <trkpt lat="44.3501" lon="5.1425">
        <ele>408.505066</ele>
        <time>2007-11-18T19:43:57Z</time>
      </trkpt>
      <trkpt lat="44.34944" lon="5.1419">
        <ele>422.070465</ele>
        <time>2007-11-18T19:43:57Z</time>
      </trkpt>
      <trkpt lat="44.3489" lon="5.1414">
        <ele>428.754181</ele>
        <time>2007-11-18T19:43:57Z</time>
      </trkpt>
      <trkpt lat="44.34795" lon="5.14159">
        <ele>429.355103</ele>
        <time>2007-11-18T19:43:57Z</time>
      </trkpt>
      <trkpt lat="44.34723" lon="5.14231">
        <ele>423.402618</ele>
        <time>2007-11-18T19:43:57Z</time>
      </trkpt>
      <trkpt lat="44.34671" lon="5.14286">
        <ele>448.876068</ele>
        <time>2007-11-18T19:43:57Z</time>
      </trkpt>
      <trkpt lat="44.34618" lon="5.14343">
        <ele>458.626434</ele>
        <time>2007-11-18T19:43:57Z</time>
      </trkpt>
      <trkpt lat="44.34544" lon="5.1438">
        <ele>467.448914</ele>
        <time>2007-11-18T19:43:57Z</time>
      </trkpt>
      <trkpt lat="44.34481" lon="5.14423">
        <ele>471.968384</ele>
        <time>2007-11-18T19:43:57Z</time>
      </trkpt>
      <trkpt lat="44.34383" lon="5.1444">
        <ele>477.21698</ele>
        <time>2007-11-18T19:43:57Z</time>
      </trkpt>
      <trkpt lat="44.34302" lon="5.14449">
        <ele>488.076019</ele>
        <time>2007-11-18T19:43:57Z</time>
      </trkpt>
      <trkpt lat="44.34255" lon="5.14512">
        <ele>494.599945</ele>
        <time>2007-11-18T19:43:57Z</time>
      </trkpt>
      <trkpt lat="44.3427" lon="5.146">
        <ele>500.149109</ele>
        <time>2007-11-18T19:43:57Z</time>
      </trkpt>
      <trkpt lat="44.34319" lon="5.14667">
        <ele>509.998871</ele>
        <time>2007-11-18T19:43:57Z</time>
      </trkpt>
      <trkpt lat="44.34365" lon="5.14769">
        <ele>519.106445</ele>
        <time>2007-11-18T19:43:57Z</time>
      </trkpt>
      <trkpt lat="44.34422" lon="5.1485">
        <ele>528.07251</ele>
        <time>2007-11-18T19:43:57Z</time>
      </trkpt>
      <trkpt lat="44.34477" lon="5.14913">
        <ele>534.477234</ele>
        <time>2007-11-18T19:43:57Z</time>
      </trkpt>
      <trkpt lat="44.3455" lon="5.14962">
        <ele>534.855469</ele>
        <time>2007-11-18T19:43:57Z</time>
      </trkpt>
      <trkpt lat="44.34569" lon="5.15048">
        <ele>547.41571</ele>
        <time>2007-11-18T19:43:57Z</time>
      </trkpt>
      <trkpt lat="44.34544" lon="5.15149">
        <ele>542.960999</ele>
        <time>2007-11-18T19:43:57Z</time>
      </trkpt>
      <trkpt lat="44.34566" lon="5.15246">
        <ele>555.079651</ele>
        <time>2007-11-18T19:43:57Z</time>
      </trkpt>
      <trkpt lat="44.34596" lon="5.15341">
        <ele>572.227722</ele>
        <time>2007-11-18T19:43:57Z</time>
      </trkpt>
      <trkpt lat="44.34649" lon="5.15437">
        <ele>583.607483</ele>
        <time>2007-11-18T19:43:57Z</time>
      </trkpt>
      <trkpt lat="44.34709" lon="5.15499">
        <ele>589.288147</ele>
        <time>2007-11-18T19:43:57Z</time>
      </trkpt>
      <trkpt lat="44.34764" lon="5.1555">
        <ele>589.312744</ele>
        <time>2007-11-18T19:43:57Z</time>
      </trkpt>
      <trkpt lat="44.34766" lon="5.15629">
        <ele>590.408875</ele>
        <time>2007-11-18T19:43:57Z</time>
      </trkpt>
      <trkpt lat="44.34711" lon="5.15682">
        <ele>603.578918</ele>
        <time>2007-11-18T19:43:57Z</time>
      </trkpt>
      <trkpt lat="44.34648" lon="5.15732">
        <ele>618.848206</ele>
        <time>2007-11-18T19:43:57Z</time>
      </trkpt>
      <trkpt lat="44.34595" lon="5.15789">
        <ele>625.527466</ele>
        <time>2007-11-18T19:43:57Z</time>
      </trkpt>
      <trkpt lat="44.34531" lon="5.15862">
        <ele>627.06134</ele>
        <time>2007-11-18T19:43:57Z</time>
      </trkpt>
      <trkpt lat="44.34547" lon="5.15922">
        <ele>646.377563</ele>
        <time>2007-11-18T19:43:57Z</time>
      </trkpt>
      <trkpt lat="44.34614" lon="5.1598">
        <ele>657.437195</ele>
        <time>2007-11-18T19:43:57Z</time>
      </trkpt>
      <trkpt lat="44.34673" lon="5.16017">
        <ele>655.213867</ele>
        <time>2007-11-18T19:43:57Z</time>
      </trkpt>
      <trkpt lat="44.34714" lon="5.1609">
        <ele>652.513062</ele>
        <time>2007-11-18T19:43:57Z</time>
      </trkpt>
      <trkpt lat="44.34718" lon="5.16179">
        <ele>668.319092</ele>
        <time>2007-11-18T19:43:57Z</time>
      </trkpt>
      <trkpt lat="44.34761" lon="5.16212">
        <ele>683.781799</ele>
        <time>2007-11-18T19:43:57Z</time>
      </trkpt>
      <trkpt lat="44.34823" lon="5.16219">
        <ele>699.526367</ele>
        <time>2007-11-18T19:43:57Z</time>
      </trkpt>
      <trkpt lat="44.34753" lon="5.16283">
        <ele>705.743225</ele>
        <time>2007-11-18T19:43:57Z</time>
      </trkpt>
      <trkpt lat="44.34685" lon="5.16354">
        <ele>712.851135</ele>
        <time>2007-11-18T19:43:57Z</time>
      </trkpt>
      <trkpt lat="44.34637" lon="5.16436">
        <ele>708.095276</ele>
        <time>2007-11-18T19:43:57Z</time>
      </trkpt>
      <trkpt lat="44.34561" lon="5.1645">
        <ele>698.722229</ele>
        <time>2007-11-18T19:43:57Z</time>
      </trkpt>
      <trkpt lat="44.34493" lon="5.16448">
        <ele>691.518616</ele>
        <time>2007-11-18T19:43:57Z</time>
      </trkpt>
      <trkpt lat="44.34411" lon="5.16427">
        <ele>681.576172</ele>
        <time>2007-11-18T19:43:57Z</time>
      </trkpt>
      <trkpt lat="44.34344" lon="5.16416">
        <ele>671.829285</ele>
        <time>2007-11-18T19:43:57Z</time>
      </trkpt>
      <trkpt lat="44.3428" lon="5.16406">
        <ele>662.904175</ele>
        <time>2007-11-18T19:43:57Z</time>
      </trkpt>
      <trkpt lat="44.34264" lon="5.1641">
        <ele>658.430969</ele>
        <time>2007-11-18T19:43:57Z</time>
      </trkpt>
      <trkpt lat="44.34317" lon="5.16465">
        <ele>648.74176</ele>
        <time>2007-11-18T19:43:57Z</time>
      </trkpt>
      <trkpt lat="44.34383" lon="5.16528">
        <ele>637.609619</ele>
        <time>2007-11-18T19:43:57Z</time>
      </trkpt>
      <trkpt lat="44.34437" lon="5.16577">
        <ele>629.794861</ele>
        <time>2007-11-18T19:43:57Z</time>
      </trkpt>
      <trkpt lat="44.34492" lon="5.16622">
        <ele>622.235168</ele>
        <time>2007-11-18T19:43:57Z</time>
      </trkpt>
      <trkpt lat="44.34552" lon="5.16652">
        <ele>616.829102</ele>
        <time>2007-11-18T19:43:57Z</time>
      </trkpt>
      <trkpt lat="44.34479" lon="5.16658">
        <ele>607.943848</ele>
        <time>2007-11-18T19:43:57Z</time>
      </trkpt>
      <trkpt lat="44.34394" lon="5.16631">
        <ele>603.963257</ele>
        <time>2007-11-18T19:43:57Z</time>
      </trkpt>
      <trkpt lat="44.34262" lon="5.16634">
        <ele>594.170837</ele>
        <time>2007-11-18T19:43:57Z</time>
      </trkpt>
      <trkpt lat="44.34206" lon="5.16593">
        <ele>593.745605</ele>
        <time>2007-11-18T19:43:57Z</time>
      </trkpt>
      <trkpt lat="44.34129" lon="5.16579">
        <ele>584.958008</ele>
        <time>2007-11-18T19:43:57Z</time>
      </trkpt>
      <trkpt lat="44.34067" lon="5.16512">
        <ele>579.870483</ele>
        <time>2007-11-18T19:43:57Z</time>
      </trkpt>
      <trkpt lat="44.33995" lon="5.16476">
        <ele>571.375427</ele>
        <time>2007-11-18T19:43:57Z</time>
      </trkpt>
      <trkpt lat="44.34036" lon="5.16541">
        <ele>559.362915</ele>
        <time>2007-11-18T19:43:57Z</time>
      </trkpt>
      <trkpt lat="44.3407" lon="5.16621">
        <ele>547.11554</ele>
        <time>2007-11-18T19:43:57Z</time>
      </trkpt>
      <trkpt lat="44.34126" lon="5.16702">
        <ele>542.556946</ele>
        <time>2007-11-18T19:43:57Z</time>
      </trkpt>
      <trkpt lat="44.34116" lon="5.16806">
        <ele>527.713684</ele>
        <time>2007-11-18T19:43:57Z</time>
      </trkpt>
      <trkpt lat="44.34144" lon="5.16924">
        <ele>519.473267</ele>
        <time>2007-11-18T19:43:57Z</time>
      </trkpt>
      <trkpt lat="44.34125" lon="5.17016">
        <ele>504.523407</ele>
        <time>2007-11-18T19:43:57Z</time>
      </trkpt>
      <trkpt lat="44.34108" lon="5.1711">
        <ele>489.441589</ele>
        <time>2007-11-18T19:43:57Z</time>
      </trkpt>
      <trkpt lat="44.34171" lon="5.17128">
        <ele>489.124207</ele>
        <time>2007-11-18T19:43:57Z</time>
      </trkpt>
      <trkpt lat="44.34111" lon="5.17154">
        <ele>483.220276</ele>
        <time>2007-11-18T19:43:57Z</time>
      </trkpt>
      <trkpt lat="44.3404" lon="5.17184">
        <ele>468.876068</ele>
        <time>2007-11-18T19:43:57Z</time>
      </trkpt>
      <trkpt lat="44.34005" lon="5.1725">
        <ele>463.842346</ele>
        <time>2007-11-18T19:43:57Z</time>
      </trkpt>
      <trkpt lat="44.34047" lon="5.17358">
        <ele>457.446838</ele>
        <time>2007-11-18T19:43:57Z</time>
      </trkpt>
      <trkpt lat="44.34016" lon="5.17461">
        <ele>443.930725</ele>
        <time>2007-11-18T19:43:57Z</time>
      </trkpt>
      <trkpt lat="44.34048" lon="5.17533">
        <ele>440.322601</ele>
        <time>2007-11-18T19:43:57Z</time>
      </trkpt>
      <trkpt lat="44.34059" lon="5.17646">
        <ele>434.989166</ele>
        <time>2007-11-18T19:43:57Z</time>
      </trkpt>
      <trkpt lat="44.34013" lon="5.17686">
        <ele>443.621704</ele>
        <time>2007-11-18T19:43:57Z</time>
      </trkpt>
      <trkpt lat="44.33949" lon="5.17696">
        <ele>445.383606</ele>
        <time>2007-11-18T19:43:57Z</time>
      </trkpt>
      <trkpt lat="44.33948" lon="5.17731">
        <ele>454.588776</ele>
        <time>2007-11-18T19:43:57Z</time>
      </trkpt>
      <trkpt lat="44.33887" lon="5.17722">
        <ele>458.947662</ele>
        <time>2007-11-18T19:43:57Z</time>
      </trkpt>
      <trkpt lat="44.33813" lon="5.17686">
        <ele>458.145355</ele>
        <time>2007-11-18T19:43:57Z</time>
      </trkpt>
      <trkpt lat="44.33718" lon="5.17684">
        <ele>462.912628</ele>
        <time>2007-11-18T19:43:57Z</time>
      </trkpt>
      <trkpt lat="44.33654" lon="5.17707">
        <ele>465.815002</ele>
        <time>2007-11-18T19:43:57Z</time>
      </trkpt>
      <trkpt lat="44.33551" lon="5.17748">
        <ele>472.306274</ele>
        <time>2007-11-18T19:43:57Z</time>
      </trkpt>
      <trkpt lat="44.33462" lon="5.17696">
        <ele>472.445099</ele>
        <time>2007-11-18T19:43:57Z</time>
      </trkpt>
      <trkpt lat="44.334" lon="5.17705">
        <ele>476.609772</ele>
        <time>2007-11-18T19:43:57Z</time>
      </trkpt>
      <trkpt lat="44.33299" lon="5.17687">
        <ele>480.508728</ele>
        <time>2007-11-18T19:43:57Z</time>
      </trkpt>
      <trkpt lat="44.33233" lon="5.17695">
        <ele>484.529541</ele>
        <time>2007-11-18T19:43:57Z</time>
      </trkpt>
      <trkpt lat="44.33138" lon="5.17689">
        <ele>488.574982</ele>
        <time>2007-11-18T19:43:57Z</time>
      </trkpt>
      <trkpt lat="44.33159" lon="5.17594">
        <ele>489.393311</ele>
        <time>2007-11-18T19:43:57Z</time>
      </trkpt>
      <trkpt lat="44.33135" lon="5.17466">
        <ele>493.539124</ele>
        <time>2007-11-18T19:43:57Z</time>
      </trkpt>
      <trkpt lat="44.33112" lon="5.17385">
        <ele>494.941956</ele>
        <time>2007-11-18T19:43:57Z</time>
      </trkpt>
      <trkpt lat="44.33062" lon="5.17307">
        <ele>496.672546</ele>
        <time>2007-11-18T19:43:57Z</time>
      </trkpt>
      <trkpt lat="44.32974" lon="5.172">
        <ele>501.0867</ele>
        <time>2007-11-18T19:43:57Z</time>
      </trkpt>
      <trkpt lat="44.32972" lon="5.17081">
        <ele>505.93158</ele>
        <time>2007-11-18T19:43:57Z</time>
      </trkpt>
      <trkpt lat="44.33009" lon="5.1701">
        <ele>509.062561</ele>
        <time>2007-11-18T19:43:57Z</time>
      </trkpt>
      <trkpt lat="44.33029" lon="5.16898">
        <ele>516.610779</ele>
        <time>2007-11-18T19:43:57Z</time>
      </trkpt>
      <trkpt lat="44.33011" lon="5.1685">
        <ele>517.870483</ele>
        <time>2007-11-18T19:43:57Z</time>
      </trkpt>
      <trkpt lat="44.32954" lon="5.1688">
        <ele>524.543274</ele>
        <time>2007-11-18T19:43:57Z</time>
      </trkpt>
      <trkpt lat="44.32892" lon="5.16919">
        <ele>534.297668</ele>
        <time>2007-11-18T19:43:57Z</time>
      </trkpt>
      <trkpt lat="44.32818" lon="5.16969">
        <ele>537.642334</ele>
        <time>2007-11-18T19:43:57Z</time>
      </trkpt>
      <trkpt lat="44.32761" lon="5.16914">
        <ele>541.388367</ele>
        <time>2007-11-18T19:43:57Z</time>
      </trkpt>
      <trkpt lat="44.32686" lon="5.16933">
        <ele>554.299622</ele>
        <time>2007-11-18T19:43:57Z</time>
      </trkpt>
      <trkpt lat="44.32635" lon="5.16988">
        <ele>565.182739</ele>
        <time>2007-11-18T19:43:57Z</time>
      </trkpt>
      <trkpt lat="44.32586" lon="5.17043">
        <ele>567.885315</ele>
        <time>2007-11-18T19:43:57Z</time>
      </trkpt>
      <trkpt lat="44.32526" lon="5.17104">
        <ele>579.560913</ele>
        <time>2007-11-18T19:43:57Z</time>
      </trkpt>
      <trkpt lat="44.32521" lon="5.17189">
        <ele>590.543396</ele>
        <time>2007-11-18T19:43:57Z</time>
      </trkpt>
      <trkpt lat="44.32522" lon="5.17274">
        <ele>598.100952</ele>
        <time>2007-11-18T19:43:57Z</time>
      </trkpt>
      <trkpt lat="44.32543" lon="5.17354">
        <ele>602.149536</ele>
        <time>2007-11-18T19:43:57Z</time>
      </trkpt>
      <trkpt lat="44.32575" lon="5.17425">
        <ele>607.125244</ele>
        <time>2007-11-18T19:43:57Z</time>
      </trkpt>
      <trkpt lat="44.32594" lon="5.17515">
        <ele>622.343567</ele>
        <time>2007-11-18T19:43:57Z</time>
      </trkpt>
      <trkpt lat="44.32647" lon="5.1757">
        <ele>619.692688</ele>
        <time>2007-11-18T19:43:57Z</time>
      </trkpt>
      <trkpt lat="44.32673" lon="5.17649">
        <ele>622.700012</ele>
        <time>2007-11-18T19:43:57Z</time>
      </trkpt>
      <trkpt lat="44.32676" lon="5.17743">
        <ele>635.262085</ele>
        <time>2007-11-18T19:43:57Z</time>
      </trkpt>
      <trkpt lat="44.32696" lon="5.17827">
        <ele>642.053223</ele>
        <time>2007-11-18T19:43:57Z</time>
      </trkpt>
      <trkpt lat="44.3269" lon="5.17922">
        <ele>649.97052</ele>
        <time>2007-11-18T19:43:57Z</time>
      </trkpt>
      <trkpt lat="44.32692" lon="5.18007">
        <ele>659.693542</ele>
        <time>2007-11-18T19:43:57Z</time>
      </trkpt>
      <trkpt lat="44.32731" lon="5.18096">
        <ele>659.099365</ele>
        <time>2007-11-18T19:43:57Z</time>
      </trkpt>
      <trkpt lat="44.32716" lon="5.18181">
        <ele>671.301025</ele>
        <time>2007-11-18T19:43:57Z</time>
      </trkpt>
      <trkpt lat="44.32751" lon="5.18257">
        <ele>669.60376</ele>
        <time>2007-11-18T19:43:57Z</time>
      </trkpt>
      <trkpt lat="44.32744" lon="5.18345">
        <ele>682.379211</ele>
        <time>2007-11-18T19:43:57Z</time>
      </trkpt>
      <trkpt lat="44.32754" lon="5.18438">
        <ele>690.899292</ele>
        <time>2007-11-18T19:43:57Z</time>
      </trkpt>
      <trkpt lat="44.32761" lon="5.18537">
        <ele>699.482056</ele>
        <time>2007-11-18T19:43:57Z</time>
      </trkpt>
      <trkpt lat="44.32779" lon="5.18629">
        <ele>707.465271</ele>
        <time>2007-11-18T19:43:57Z</time>
      </trkpt>
      <trkpt lat="44.32785" lon="5.18715">
        <ele>715.909729</ele>
        <time>2007-11-18T19:43:57Z</time>
      </trkpt>
      <trkpt lat="44.32819" lon="5.18787">
        <ele>725.058533</ele>
        <time>2007-11-18T19:43:57Z</time>
      </trkpt>
      <trkpt lat="44.32853" lon="5.18856">
        <ele>733.842102</ele>
        <time>2007-11-18T19:43:57Z</time>
      </trkpt>
      <trkpt lat="44.32888" lon="5.18944">
        <ele>746.335388</ele>
        <time>2007-11-18T19:43:57Z</time>
      </trkpt>
      <trkpt lat="44.32939" lon="5.1899">
        <ele>756.720337</ele>
        <time>2007-11-18T19:43:57Z</time>
      </trkpt>
      <trkpt lat="44.33016" lon="5.18969">
        <ele>764.427368</ele>
        <time>2007-11-18T19:43:57Z</time>
      </trkpt>
      <trkpt lat="44.33089" lon="5.1901">
        <ele>774.311829</ele>
        <time>2007-11-18T19:43:57Z</time>
      </trkpt>
      <trkpt lat="44.33145" lon="5.19076">
        <ele>781.297852</ele>
        <time>2007-11-18T19:43:57Z</time>
      </trkpt>
      <trkpt lat="44.33172" lon="5.19156">
        <ele>784.035339</ele>
        <time>2007-11-18T19:43:57Z</time>
      </trkpt>
      <trkpt lat="44.33101" lon="5.19138">
        <ele>786.127563</ele>
        <time>2007-11-18T19:43:57Z</time>
      </trkpt>
      <trkpt lat="44.33045" lon="5.19081">
        <ele>780.510864</ele>
        <time>2007-11-18T19:43:57Z</time>
      </trkpt>
      <trkpt lat="44.32986" lon="5.19055">
        <ele>770.845398</ele>
        <time>2007-11-18T19:43:57Z</time>
      </trkpt>
      <trkpt lat="44.32919" lon="5.19051">
        <ele>761.479553</ele>
        <time>2007-11-18T19:43:57Z</time>
      </trkpt>
      <trkpt lat="44.32906" lon="5.19084">
        <ele>754.815674</ele>
        <time>2007-11-18T19:43:57Z</time>
      </trkpt>
      <trkpt lat="44.32966" lon="5.19123">
        <ele>755.38562</ele>
        <time>2007-11-18T19:43:57Z</time>
      </trkpt>
      <trkpt lat="44.32916" lon="5.19123">
        <ele>744.863281</ele>
        <time>2007-11-18T19:43:57Z</time>
      </trkpt>
      <trkpt lat="44.32922" lon="5.19159">
        <ele>735.047302</ele>
        <time>2007-11-18T19:43:57Z</time>
      </trkpt>
      <trkpt lat="44.32977" lon="5.19215">
        <ele>735.657104</ele>
        <time>2007-11-18T19:43:57Z</time>
      </trkpt>
      <trkpt lat="44.33002" lon="5.19295">
        <ele>726.585876</ele>
        <time>2007-11-18T19:43:57Z</time>
      </trkpt>
      <trkpt lat="44.33046" lon="5.19375">
        <ele>715.201294</ele>
        <time>2007-11-18T19:43:57Z</time>
      </trkpt>
      <trkpt lat="44.33095" lon="5.19425">
        <ele>714.59613</ele>
        <time>2007-11-18T19:43:57Z</time>
      </trkpt>
      <trkpt lat="44.33129" lon="5.19495">
        <ele>696.531616</ele>
        <time>2007-11-18T19:43:57Z</time>
      </trkpt>
      <trkpt lat="44.33183" lon="5.19517">
        <ele>701.045105</ele>
        <time>2007-11-18T19:43:57Z</time>
      </trkpt>
      <trkpt lat="44.33242" lon="5.19539">
        <ele>710.141052</ele>
        <time>2007-11-18T19:43:57Z</time>
      </trkpt>
      <trkpt lat="44.33287" lon="5.19625">
        <ele>709.496338</ele>
        <time>2007-11-18T19:43:57Z</time>
      </trkpt>
      <trkpt lat="44.33329" lon="5.19719">
        <ele>705.601624</ele>
        <time>2007-11-18T19:43:57Z</time>
      </trkpt>
      <trkpt lat="44.33379" lon="5.19829">
        <ele>705.849854</ele>
        <time>2007-11-18T19:43:57Z</time>
      </trkpt>
      <trkpt lat="44.33424" lon="5.19941">
        <ele>705.830322</ele>
        <time>2007-11-18T19:43:57Z</time>
      </trkpt>
      <trkpt lat="44.33439" lon="5.20029">
        <ele>699.915894</ele>
        <time>2007-11-18T19:43:57Z</time>
      </trkpt>
      <trkpt lat="44.33465" lon="5.20154">
        <ele>689.22937</ele>
        <time>2007-11-18T19:43:57Z</time>
      </trkpt>
      <trkpt lat="44.33485" lon="5.2025">
        <ele>682.432739</ele>
        <time>2007-11-18T19:43:57Z</time>
      </trkpt>
      <trkpt lat="44.3344" lon="5.20305">
        <ele>677.87146</ele>
        <time>2007-11-18T19:43:57Z</time>
      </trkpt>
      <trkpt lat="44.33336" lon="5.20271">
        <ele>677.904053</ele>
        <time>2007-11-18T19:43:57Z</time>
      </trkpt>
      <trkpt lat="44.33272" lon="5.20266">
        <ele>684.836182</ele>
        <time>2007-11-18T19:43:57Z</time>
      </trkpt>
      <trkpt lat="44.33207" lon="5.20221">
        <ele>686.494507</ele>
        <time>2007-11-18T19:43:57Z</time>
      </trkpt>
      <trkpt lat="44.3313" lon="5.20207">
        <ele>696.4505</ele>
        <time>2007-11-18T19:43:57Z</time>
      </trkpt>
      <trkpt lat="44.33077" lon="5.20196">
        <ele>698.461609</ele>
        <time>2007-11-18T19:43:57Z</time>
      </trkpt>
      <trkpt lat="44.33067" lon="5.20291">
        <ele>705.0401</ele>
        <time>2007-11-18T19:43:57Z</time>
      </trkpt>
      <trkpt lat="44.33059" lon="5.20389">
        <ele>705.992615</ele>
        <time>2007-11-18T19:43:57Z</time>
      </trkpt>
      <trkpt lat="44.33062" lon="5.20472">
        <ele>706.87561</ele>
        <time>2007-11-18T19:43:57Z</time>
      </trkpt>
      <trkpt lat="44.33082" lon="5.20588">
        <ele>703.759583</ele>
        <time>2007-11-18T19:43:57Z</time>
      </trkpt>
      <trkpt lat="44.33088" lon="5.20681">
        <ele>703.436523</ele>
        <time>2007-11-18T19:43:57Z</time>
      </trkpt>
      <trkpt lat="44.33066" lon="5.2076">
        <ele>699.381226</ele>
        <time>2007-11-18T19:43:57Z</time>
      </trkpt>
      <trkpt lat="44.33013" lon="5.20818">
        <ele>697.159363</ele>
        <time>2007-11-18T19:43:57Z</time>
      </trkpt>
      <trkpt lat="44.32957" lon="5.20841">
        <ele>696.546265</ele>
        <time>2007-11-18T19:43:57Z</time>
      </trkpt>
      <trkpt lat="44.32876" lon="5.20874">
        <ele>700.977783</ele>
        <time>2007-11-18T19:43:57Z</time>
      </trkpt>
      <trkpt lat="44.3278" lon="5.20917">
        <ele>701.548462</ele>
        <time>2007-11-18T19:43:57Z</time>
      </trkpt>
      <trkpt lat="44.32691" lon="5.21001">
        <ele>694.957947</ele>
        <time>2007-11-18T19:43:57Z</time>
      </trkpt>
      <trkpt lat="44.32633" lon="5.21045">
        <ele>693.393494</ele>
        <time>2007-11-18T19:43:57Z</time>
      </trkpt>
      <trkpt lat="44.32566" lon="5.2113">
        <ele>687.060242</ele>
        <time>2007-11-18T19:43:57Z</time>
      </trkpt>
      <trkpt lat="44.32477" lon="5.21219">
        <ele>689.685059</ele>
        <time>2007-11-18T19:43:57Z</time>
      </trkpt>
      <trkpt lat="44.32433" lon="5.21311">
        <ele>686.967163</ele>
        <time>2007-11-18T19:43:57Z</time>
      </trkpt>
      <trkpt lat="44.32468" lon="5.21382">
        <ele>695.927979</ele>
        <time>2007-11-18T19:43:57Z</time>
      </trkpt>
      <trkpt lat="44.32532" lon="5.21445">
        <ele>704.393311</ele>
        <time>2007-11-18T19:43:57Z</time>
      </trkpt>
      <trkpt lat="44.32588" lon="5.21503">
        <ele>711.372559</ele>
        <time>2007-11-18T19:43:57Z</time>
      </trkpt>
      <trkpt lat="44.3264" lon="5.21538">
        <ele>710.751221</ele>
        <time>2007-11-18T19:43:57Z</time>
      </trkpt>
      <trkpt lat="44.32665" lon="5.21649">
        <ele>715.939331</ele>
        <time>2007-11-18T19:43:57Z</time>
      </trkpt>
      <trkpt lat="44.32634" lon="5.21766">
        <ele>722.265991</ele>
        <time>2007-11-18T19:43:57Z</time>
      </trkpt>
      <trkpt lat="44.32684" lon="5.21772">
        <ele>725.469604</ele>
        <time>2007-11-18T19:43:57Z</time>
      </trkpt>
      <trkpt lat="44.32754" lon="5.21727">
        <ele>719.74408</ele>
        <time>2007-11-18T19:43:57Z</time>
      </trkpt>
      <trkpt lat="44.32803" lon="5.21679">
        <ele>713.83374</ele>
        <time>2007-11-18T19:43:57Z</time>
      </trkpt>
      <trkpt lat="44.32846" lon="5.21614">
        <ele>706.212585</ele>
        <time>2007-11-18T19:43:57Z</time>
      </trkpt>
      <trkpt lat="44.32915" lon="5.21567">
        <ele>701.562012</ele>
        <time>2007-11-18T19:43:57Z</time>
      </trkpt>
      <trkpt lat="44.32998" lon="5.21562">
        <ele>696.862671</ele>
        <time>2007-11-18T19:43:57Z</time>
      </trkpt>
      <trkpt lat="44.33073" lon="5.21528">
        <ele>690.860535</ele>
        <time>2007-11-18T19:43:57Z</time>
      </trkpt>
      <trkpt lat="44.3313" lon="5.21504">
        <ele>689.844666</ele>
        <time>2007-11-18T19:43:57Z</time>
      </trkpt>
      <trkpt lat="44.33198" lon="5.21455">
        <ele>684.479187</ele>
        <time>2007-11-18T19:43:57Z</time>
      </trkpt>
      <trkpt lat="44.33287" lon="5.2138">
        <ele>672.767151</ele>
        <time>2007-11-18T19:43:57Z</time>
      </trkpt>
      <trkpt lat="44.33371" lon="5.21324">
        <ele>663.105652</ele>
        <time>2007-11-18T19:43:57Z</time>
      </trkpt>
      <trkpt lat="44.33439" lon="5.21357">
        <ele>663.073547</ele>
        <time>2007-11-18T19:43:57Z</time>
      </trkpt>
      <trkpt lat="44.33496" lon="5.21424">
        <ele>653.723572</ele>
        <time>2007-11-18T19:43:57Z</time>
      </trkpt>
      <trkpt lat="44.33535" lon="5.21468">
        <ele>649.540039</ele>
        <time>2007-11-18T19:43:57Z</time>
      </trkpt>
      <trkpt lat="44.33646" lon="5.21429">
        <ele>643.61615</ele>
        <time>2007-11-18T19:43:57Z</time>
      </trkpt>
      <trkpt lat="44.33721" lon="5.21383">
        <ele>639.153076</ele>
        <time>2007-11-18T19:43:57Z</time>
      </trkpt>
      <trkpt lat="44.33781" lon="5.21356">
        <ele>637.776123</ele>
        <time>2007-11-18T19:43:57Z</time>
      </trkpt>
      <trkpt lat="44.33854" lon="5.21328">
        <ele>634.633911</ele>
        <time>2007-11-18T19:43:57Z</time>
      </trkpt>
      <trkpt lat="44.33916" lon="5.21311">
        <ele>627.508545</ele>
        <time>2007-11-18T19:43:57Z</time>
      </trkpt>
      <trkpt lat="44.33987" lon="5.21322">
        <ele>619.995239</ele>
        <time>2007-11-18T19:43:57Z</time>
      </trkpt>
      <trkpt lat="44.34007" lon="5.21402">
        <ele>615.509949</ele>
        <time>2007-11-18T19:43:57Z</time>
      </trkpt>
      <trkpt lat="44.34011" lon="5.21542">
        <ele>602.502441</ele>
        <time>2007-11-18T19:43:57Z</time>
      </trkpt>
      <trkpt lat="44.3401" lon="5.21645">
        <ele>597.70929</ele>
        <time>2007-11-18T19:43:57Z</time>
      </trkpt>
      <trkpt lat="44.33961" lon="5.21737">
        <ele>602.981689</ele>
        <time>2007-11-18T19:43:57Z</time>
      </trkpt>
      <trkpt lat="44.33944" lon="5.21851">
        <ele>598.402344</ele>
        <time>2007-11-18T19:43:57Z</time>
      </trkpt>
      <trkpt lat="44.33937" lon="5.21957">
        <ele>602.199097</ele>
        <time>2007-11-18T19:43:57Z</time>
      </trkpt>
      <trkpt lat="44.33985" lon="5.21983">
        <ele>594.105713</ele>
        <time>2007-11-18T19:43:57Z</time>
      </trkpt>
      <trkpt lat="44.34031" lon="5.21994">
        <ele>593.418274</ele>
        <time>2007-11-18T19:43:57Z</time>
      </trkpt>
      <trkpt lat="44.34127" lon="5.2199">
        <ele>590.356934</ele>
        <time>2007-11-18T19:43:57Z</time>
      </trkpt>
      <trkpt lat="44.34194" lon="5.21984">
        <ele>597.754822</ele>
        <time>2007-11-18T19:43:57Z</time>
      </trkpt>
      <trkpt lat="44.34242" lon="5.21922">
        <ele>594.016113</ele>
        <time>2007-11-18T19:43:57Z</time>
      </trkpt>
      <trkpt lat="44.343" lon="5.21905">
        <ele>597.309448</ele>
        <time>2007-11-18T19:43:57Z</time>
      </trkpt>
      <trkpt lat="44.34349" lon="5.21871">
        <ele>597.93335</ele>
        <time>2007-11-18T19:43:57Z</time>
      </trkpt>
      <trkpt lat="44.34411" lon="5.21874">
        <ele>598.333191</ele>
        <time>2007-11-18T19:43:57Z</time>
      </trkpt>
      <trkpt lat="44.34469" lon="5.2188">
        <ele>589.998962</ele>
        <time>2007-11-18T19:43:57Z</time>
      </trkpt>
      <trkpt lat="44.34531" lon="5.21949">
        <ele>584.912476</ele>
        <time>2007-11-18T19:43:57Z</time>
      </trkpt>
      <trkpt lat="44.34618" lon="5.21957">
        <ele>579.782776</ele>
        <time>2007-11-18T19:43:57Z</time>
      </trkpt>
      <trkpt lat="44.34675" lon="5.21955">
        <ele>573.7146</ele>
        <time>2007-11-18T19:43:57Z</time>
      </trkpt>
      <trkpt lat="44.34755" lon="5.21945">
        <ele>568.016907</ele>
        <time>2007-11-18T19:43:57Z</time>
      </trkpt>
      <trkpt lat="44.348" lon="5.22011">
        <ele>567.244446</ele>
        <time>2007-11-18T19:43:57Z</time>
      </trkpt>
      <trkpt lat="44.3487" lon="5.22053">
        <ele>567.00769</ele>
        <time>2007-11-18T19:43:57Z</time>
      </trkpt>
      <trkpt lat="44.34922" lon="5.2209">
        <ele>559.38739</ele>
        <time>2007-11-18T19:43:57Z</time>
      </trkpt>
      <trkpt lat="44.34977" lon="5.22146">
        <ele>546.727722</ele>
        <time>2007-11-18T19:43:57Z</time>
      </trkpt>
      <trkpt lat="44.3503" lon="5.22247">
        <ele>551.912354</ele>
        <time>2007-11-18T19:43:57Z</time>
      </trkpt>
      <trkpt lat="44.3509" lon="5.22188">
        <ele>541.666748</ele>
        <time>2007-11-18T19:43:57Z</time>
      </trkpt>
      <trkpt lat="44.35197" lon="5.22185">
        <ele>536.690979</ele>
        <time>2007-11-18T19:43:57Z</time>
      </trkpt>
      <trkpt lat="44.35214" lon="5.22265">
        <ele>531.168762</ele>
        <time>2007-11-18T19:43:57Z</time>
      </trkpt>
      <trkpt lat="44.35238" lon="5.22349">
        <ele>523.03595</ele>
        <time>2007-11-18T19:43:57Z</time>
      </trkpt>
      <trkpt lat="44.3527" lon="5.22417">
        <ele>524.826355</ele>
        <time>2007-11-18T19:43:57Z</time>
      </trkpt>
      <trkpt lat="44.35322" lon="5.22447">
        <ele>516.176331</ele>
        <time>2007-11-18T19:43:57Z</time>
      </trkpt>
      <trkpt lat="44.35427" lon="5.22485">
        <ele>515.056702</ele>
        <time>2007-11-18T19:43:57Z</time>
      </trkpt>
      <trkpt lat="44.35486" lon="5.22439">
        <ele>508.051147</ele>
        <time>2007-11-18T19:43:57Z</time>
      </trkpt>
      <trkpt lat="44.35565" lon="5.22418">
        <ele>502.31134</ele>
        <time>2007-11-18T19:43:57Z</time>
      </trkpt>
      <trkpt lat="44.35671" lon="5.22452">
        <ele>496.770691</ele>
        <time>2007-11-18T19:43:57Z</time>
      </trkpt>
      <trkpt lat="44.35736" lon="5.22447">
        <ele>497.646942</ele>
        <time>2007-11-18T19:43:57Z</time>
      </trkpt>
      <trkpt lat="44.358" lon="5.2247">
        <ele>494.66684</ele>
        <time>2007-11-18T19:43:57Z</time>
      </trkpt>
      <trkpt lat="44.35804" lon="5.22552">
        <ele>494.562958</ele>
        <time>2007-11-18T19:43:57Z</time>
      </trkpt>
      <trkpt lat="44.35848" lon="5.22656">
        <ele>487.934021</ele>
        <time>2007-11-18T19:43:57Z</time>
      </trkpt>
      <trkpt lat="44.35889" lon="5.22729">
        <ele>483.837952</ele>
        <time>2007-11-18T19:43:57Z</time>
      </trkpt>
      <trkpt lat="44.35896" lon="5.22822">
        <ele>485.464569</ele>
        <time>2007-11-18T19:43:57Z</time>
      </trkpt>
      <trkpt lat="44.35901" lon="5.22899">
        <ele>482.680939</ele>
        <time>2007-11-18T19:43:57Z</time>
      </trkpt>
      <trkpt lat="44.35951" lon="5.22933">
        <ele>484.511261</ele>
        <time>2007-11-18T19:43:57Z</time>
      </trkpt>
      <trkpt lat="44.36012" lon="5.22904">
        <ele>480.768799</ele>
        <time>2007-11-18T19:43:57Z</time>
      </trkpt>
      <trkpt lat="44.36055" lon="5.22929">
        <ele>476.110992</ele>
        <time>2007-11-18T19:43:57Z</time>
      </trkpt>
      <trkpt lat="44.36073" lon="5.23009">
        <ele>475.081116</ele>
        <time>2007-11-18T19:43:57Z</time>
      </trkpt>
      <trkpt lat="44.36133" lon="5.23003">
        <ele>471.047577</ele>
        <time>2007-11-18T19:43:57Z</time>
      </trkpt>
      <trkpt lat="44.36202" lon="5.23001">
        <ele>466.573151</ele>
        <time>2007-11-18T19:43:57Z</time>
      </trkpt>
      <trkpt lat="44.3626" lon="5.22985">
        <ele>465.859497</ele>
        <time>2007-11-18T19:43:57Z</time>
      </trkpt>
      <trkpt lat="44.36338" lon="5.2292">
        <ele>462.70401</ele>
        <time>2007-11-18T19:43:57Z</time>
      </trkpt>
      <trkpt lat="44.36389" lon="5.22902">
        <ele>465.013123</ele>
        <time>2007-11-18T19:43:57Z</time>
      </trkpt>
      <trkpt lat="44.36436" lon="5.22867">
        <ele>461.322266</ele>
        <time>2007-11-18T19:43:57Z</time>
      </trkpt>
      <trkpt lat="44.36496" lon="5.2287">
        <ele>458.341644</ele>
        <time>2007-11-18T19:43:57Z</time>
      </trkpt>
      <trkpt lat="44.36546" lon="5.22855">
        <ele>452.94458</ele>
        <time>2007-11-18T19:43:57Z</time>
      </trkpt>
      <trkpt lat="44.36596" lon="5.22808">
        <ele>443.080475</ele>
        <time>2007-11-18T19:43:57Z</time>
      </trkpt>
      <trkpt lat="44.36664" lon="5.22784">
        <ele>438.27243</ele>
        <time>2007-11-18T19:43:57Z</time>
      </trkpt>
      <trkpt lat="44.3675" lon="5.22733">
        <ele>435.369141</ele>
        <time>2007-11-18T19:43:57Z</time>
      </trkpt>
      <trkpt lat="44.36806" lon="5.22639">
        <ele>430.45047</ele>
        <time>2007-11-18T19:43:57Z</time>
      </trkpt>
      <trkpt lat="44.36863" lon="5.22573">
        <ele>423.464417</ele>
        <time>2007-11-18T19:43:57Z</time>
      </trkpt>
      <trkpt lat="44.369" lon="5.22511">
        <ele>416.052734</ele>
        <time>2007-11-18T19:43:57Z</time>
      </trkpt>
      <trkpt lat="44.36931" lon="5.2245">
        <ele>405.271118</ele>
        <time>2007-11-18T19:43:57Z</time>
      </trkpt>
      <trkpt lat="44.36975" lon="5.22414">
        <ele>398.937347</ele>
        <time>2007-11-18T19:43:57Z</time>
      </trkpt>
      <trkpt lat="44.37034" lon="5.22384">
        <ele>396.00528</ele>
        <time>2007-11-18T19:43:57Z</time>
      </trkpt>
      <trkpt lat="44.37096" lon="5.22376">
        <ele>391.770782</ele>
        <time>2007-11-18T19:43:57Z</time>
      </trkpt>
      <trkpt lat="44.37151" lon="5.22389">
        <ele>387.377747</ele>
        <time>2007-11-18T19:43:57Z</time>
      </trkpt>
      <trkpt lat="44.37217" lon="5.22418">
        <ele>381.814026</ele>
        <time>2007-11-18T19:43:57Z</time>
      </trkpt>
      <trkpt lat="44.37188" lon="5.22355">
        <ele>377.143158</ele>
        <time>2007-11-18T19:43:57Z</time>
      </trkpt>
      <trkpt lat="44.37162" lon="5.22294">
        <ele>369.687958</ele>
        <time>2007-11-18T19:43:57Z</time>
      </trkpt>
      <trkpt lat="44.37186" lon="5.22277">
        <ele>364.885193</ele>
        <time>2007-11-18T19:43:57Z</time>
      </trkpt>
      <trkpt lat="44.37308" lon="5.22258">
        <ele>357.405975</ele>
        <time>2007-11-18T19:43:57Z</time>
      </trkpt>
      <trkpt lat="44.37361" lon="5.22254">
        <ele>357.092072</ele>
        <time>2007-11-18T19:43:57Z</time>
      </trkpt>
      <trkpt lat="44.37447" lon="5.22266">
        <ele>352.812439</ele>
        <time>2007-11-18T19:43:57Z</time>
      </trkpt>
      <trkpt lat="44.37519" lon="5.22233">
        <ele>346.388702</ele>
        <time>2007-11-18T19:43:57Z</time>
      </trkpt>
      <trkpt lat="44.3762" lon="5.22152">
        <ele>342.503387</ele>
        <time>2007-11-18T19:43:57Z</time>
      </trkpt>
      <trkpt lat="44.37715" lon="5.22107">
        <ele>342.704498</ele>
        <time>2007-11-18T19:43:57Z</time>
      </trkpt>
      <trkpt lat="44.37816" lon="5.22093">
        <ele>342.219513</ele>
        <time>2007-11-18T19:43:57Z</time>
      </trkpt>
      <trkpt lat="44.37901" lon="5.22089">
        <ele>340.542145</ele>
        <time>2007-11-18T19:43:57Z</time>
      </trkpt>
      <trkpt lat="44.37975" lon="5.22077">
        <ele>336.798584</ele>
        <time>2007-11-18T19:43:57Z</time>
      </trkpt>
      <trkpt lat="44.38032" lon="5.22109">
        <ele>334.528931</ele>
        <time>2007-11-18T19:43:57Z</time>
      </trkpt>
      <trkpt lat="44.38097" lon="5.22144">
        <ele>336.773834</ele>
        <time>2007-11-18T19:43:57Z</time>
      </trkpt>
      <trkpt lat="44.38147" lon="5.22155">
        <ele>331.054718</ele>
        <time>2007-11-18T19:43:57Z</time>
      </trkpt>
      <trkpt lat="44.38203" lon="5.22109">
        <ele>326.860046</ele>
        <time>2007-11-18T19:43:57Z</time>
      </trkpt>
      <trkpt lat="44.38245" lon="5.22079">
        <ele>328.112457</ele>
        <time>2007-11-18T19:43:57Z</time>
      </trkpt>
      <trkpt lat="44.38303" lon="5.22093">
        <ele>326.193695</ele>
        <time>2007-11-18T19:43:57Z</time>
      </trkpt>
      <trkpt lat="44.38362" lon="5.22099">
        <ele>322.873016</ele>
        <time>2007-11-18T19:43:57Z</time>
      </trkpt>
      <trkpt lat="44.38401" lon="5.21948">
        <ele>322.779602</ele>
        <time>2007-11-18T19:43:57Z</time>
      </trkpt>
      <trkpt lat="44.38433" lon="5.21849">
        <ele>323.321106</ele>
        <time>2007-11-18T19:43:57Z</time>
      </trkpt>
      <trkpt lat="44.38503" lon="5.21773">
        <ele>321.127167</ele>
        <time>2007-11-18T19:43:57Z</time>
      </trkpt>
      <trkpt lat="44.38549" lon="5.21715">
        <ele>322.596497</ele>
        <time>2007-11-18T19:43:57Z</time>
      </trkpt>
      <trkpt lat="44.38596" lon="5.21661">
        <ele>322.533569</ele>
        <time>2007-11-18T19:43:57Z</time>
      </trkpt>
      <trkpt lat="44.38627" lon="5.21577">
        <ele>322.253235</ele>
        <time>2007-11-18T19:43:57Z</time>
      </trkpt>
      <trkpt lat="44.3859" lon="5.21386">
        <ele>323.394073</ele>
        <time>2007-11-18T19:43:57Z</time>
      </trkpt>
      <trkpt lat="44.38565" lon="5.21307">
        <ele>323.384155</ele>
        <time>2007-11-18T19:43:57Z</time>
      </trkpt>
      <trkpt lat="44.38523" lon="5.21242">
        <ele>324.767242</ele>
        <time>2007-11-18T19:43:57Z</time>
      </trkpt>
      <trkpt lat="44.38429" lon="5.21162">
        <ele>328.685669</ele>
        <time>2007-11-18T19:43:57Z</time>
      </trkpt>
      <trkpt lat="44.3838" lon="5.21088">
        <ele>323.972504</ele>
        <time>2007-11-18T19:43:57Z</time>
      </trkpt>
      <trkpt lat="44.3834" lon="5.21031">
        <ele>324.437775</ele>
        <time>2007-11-18T19:43:57Z</time>
      </trkpt>
      <trkpt lat="44.38291" lon="5.20918">
        <ele>322.875336</ele>
        <time>2007-11-18T19:43:57Z</time>
      </trkpt>
      <trkpt lat="44.38283" lon="5.20826">
        <ele>317.431732</ele>
        <time>2007-11-18T19:43:57Z</time>
      </trkpt>
      <trkpt lat="44.38271" lon="5.20721">
        <ele>321.300323</ele>
        <time>2007-11-18T19:43:57Z</time>
      </trkpt>
      <trkpt lat="44.38276" lon="5.20648">
        <ele>319.184906</ele>
        <time>2007-11-18T19:43:57Z</time>
      </trkpt>
      <trkpt lat="44.38255" lon="5.20472">
        <ele>316.415192</ele>
        <time>2007-11-18T19:43:57Z</time>
      </trkpt>
      <trkpt lat="44.3826" lon="5.20374">
        <ele>314.321564</ele>
        <time>2007-11-18T19:43:57Z</time>
      </trkpt>
      <trkpt lat="44.38251" lon="5.20231">
        <ele>311.720764</ele>
        <time>2007-11-18T19:43:57Z</time>
      </trkpt>
      <trkpt lat="44.38221" lon="5.20131">
        <ele>312.461182</ele>
        <time>2007-11-18T19:43:57Z</time>
      </trkpt>
      <trkpt lat="44.38179" lon="5.20038">
        <ele>314.21579</ele>
        <time>2007-11-18T19:43:57Z</time>
      </trkpt>
      <trkpt lat="44.38159" lon="5.19962">
        <ele>312.987061</ele>
        <time>2007-11-18T19:43:57Z</time>
      </trkpt>
      <trkpt lat="44.38124" lon="5.19923">
        <ele>314.461548</ele>
        <time>2007-11-18T19:43:57Z</time>
      </trkpt>
      <trkpt lat="44.3804" lon="5.19914">
        <ele>319.672424</ele>
        <time>2007-11-18T19:43:57Z</time>
      </trkpt>
      <trkpt lat="44.38004" lon="5.19878">
        <ele>314.729553</ele>
        <time>2007-11-18T19:43:57Z</time>
      </trkpt>
      <trkpt lat="44.3792" lon="5.19734">
        <ele>315.243317</ele>
        <time>2007-11-18T19:43:57Z</time>
      </trkpt>
      <trkpt lat="44.37867" lon="5.19648">
        <ele>314.442291</ele>
        <time>2007-11-18T19:43:57Z</time>
      </trkpt>
      <trkpt lat="44.37841" lon="5.19588">
        <ele>313.532379</ele>
        <time>2007-11-18T19:43:57Z</time>
      </trkpt>
      <trkpt lat="44.37811" lon="5.19436">
        <ele>317.782166</ele>
        <time>2007-11-18T19:43:57Z</time>
      </trkpt>
      <trkpt lat="44.37822" lon="5.19272">
        <ele>314.557007</ele>
        <time>2007-11-18T19:43:57Z</time>
      </trkpt>
      <trkpt lat="44.37838" lon="5.19187">
        <ele>307.694611</ele>
        <time>2007-11-18T19:43:57Z</time>
      </trkpt>
      <trkpt lat="44.37852" lon="5.19106">
        <ele>304.69101</ele>
        <time>2007-11-18T19:43:57Z</time>
      </trkpt>
      <trkpt lat="44.37853" lon="5.19049">
        <ele>302.328949</ele>
        <time>2007-11-18T19:43:57Z</time>
      </trkpt>
      <trkpt lat="44.37832" lon="5.18989">
        <ele>302.243134</ele>
        <time>2007-11-18T19:43:57Z</time>
      </trkpt>
      <trkpt lat="44.37805" lon="5.18829">
        <ele>299.924194</ele>
        <time>2007-11-18T19:43:57Z</time>
      </trkpt>
      <trkpt lat="44.37783" lon="5.18776">
        <ele>300.307159</ele>
        <time>2007-11-18T19:43:57Z</time>
      </trkpt>
      <trkpt lat="44.37801" lon="5.18714">
        <ele>297.391418</ele>
        <time>2007-11-18T19:43:57Z</time>
      </trkpt>
      <trkpt lat="44.37782" lon="5.1855">
        <ele>295.715851</ele>
        <time>2007-11-18T19:43:57Z</time>
      </trkpt>
      <trkpt lat="44.37765" lon="5.18481">
        <ele>296.916656</ele>
        <time>2007-11-18T19:43:57Z</time>
      </trkpt>
      <trkpt lat="44.37755" lon="5.18394">
        <ele>297.602753</ele>
        <time>2007-11-18T19:43:57Z</time>
      </trkpt>
      <trkpt lat="44.37758" lon="5.18338">
        <ele>296.77124</ele>
        <time>2007-11-18T19:43:57Z</time>
      </trkpt>
      <trkpt lat="44.37755" lon="5.18279">
        <ele>296.521118</ele>
        <time>2007-11-18T19:43:57Z</time>
      </trkpt>
      <trkpt lat="44.37767" lon="5.18193">
        <ele>295.98761</ele>
        <time>2007-11-18T19:43:57Z</time>
      </trkpt>
      <trkpt lat="44.3778" lon="5.18081">
        <ele>294.210663</ele>
        <time>2007-11-18T19:43:57Z</time>
      </trkpt>
      <trkpt lat="44.37797" lon="5.18026">
        <ele>295.268463</ele>
        <time>2007-11-18T19:43:57Z</time>
      </trkpt>
      <trkpt lat="44.37841" lon="5.17965">
        <ele>296.619202</ele>
        <time>2007-11-18T19:43:57Z</time>
      </trkpt>
      <trkpt lat="44.37918" lon="5.17963">
        <ele>295.143188</ele>
        <time>2007-11-18T19:43:57Z</time>
      </trkpt>
      <trkpt lat="44.37972" lon="5.17993">
        <ele>294.262939</ele>
        <time>2007-11-18T19:43:57Z</time>
      </trkpt>
      <trkpt lat="44.38034" lon="5.17967">
        <ele>292.161957</ele>
        <time>2007-11-18T19:43:57Z</time>
      </trkpt>
      <trkpt lat="44.38095" lon="5.17919">
        <ele>292.929413</ele>
        <time>2007-11-18T19:43:57Z</time>
      </trkpt>
      <trkpt lat="44.3814" lon="5.17869">
        <ele>291.947083</ele>
        <time>2007-11-18T19:43:57Z</time>
      </trkpt>
      <trkpt lat="44.38198" lon="5.17761">
        <ele>295.427795</ele>
        <time>2007-11-18T19:43:57Z</time>
      </trkpt>
      <trkpt lat="44.38227" lon="5.17713">
        <ele>297.727234</ele>
        <time>2007-11-18T19:43:57Z</time>
      </trkpt>
      <trkpt lat="44.3826" lon="5.17614">
        <ele>306.806274</ele>
        <time>2007-11-18T19:43:57Z</time>
      </trkpt>
      <trkpt lat="44.38261" lon="5.17528">
        <ele>312.86322</ele>
        <time>2007-11-18T19:43:57Z</time>
      </trkpt>
      <trkpt lat="44.38289" lon="5.17464">
        <ele>301.673523</ele>
        <time>2007-11-18T19:43:57Z</time>
      </trkpt>
      <trkpt lat="44.38291" lon="5.17395">
        <ele>301.637878</ele>
        <time>2007-11-18T19:43:57Z</time>
      </trkpt>
      <trkpt lat="44.38251" lon="5.17335">
        <ele>300.711975</ele>
        <time>2007-11-18T19:43:57Z</time>
      </trkpt>
      <trkpt lat="44.38211" lon="5.1731">
        <ele>297.643005</ele>
        <time>2007-11-18T19:43:57Z</time>
      </trkpt>
      <trkpt lat="44.38159" lon="5.17281">
        <ele>295.731567</ele>
        <time>2007-11-18T19:43:57Z</time>
      </trkpt>
      <trkpt lat="44.38046" lon="5.17317">
        <ele>296.69931</ele>
        <time>2007-11-18T19:43:57Z</time>
      </trkpt>
      <trkpt lat="44.37962" lon="5.17334">
        <ele>292.03772</ele>
        <time>2007-11-18T19:43:57Z</time>
      </trkpt>
      <trkpt lat="44.37901" lon="5.17312">
        <ele>287.241211</ele>
        <time>2007-11-18T19:43:57Z</time>
      </trkpt>
      <trkpt lat="44.37864" lon="5.17306">
        <ele>286.556854</ele>
        <time>2007-11-18T19:43:57Z</time>
      </trkpt>
      <trkpt lat="44.37779" lon="5.17313">
        <ele>286.902039</ele>
        <time>2007-11-18T19:43:57Z</time>
      </trkpt>
      <trkpt lat="44.37689" lon="5.17372">
        <ele>288.754333</ele>
        <time>2007-11-18T19:43:57Z</time>
      </trkpt>
      <trkpt lat="44.37629" lon="5.17425">
        <ele>294.193481</ele>
        <time>2007-11-18T19:43:57Z</time>
      </trkpt>
      <trkpt lat="44.37541" lon="5.17431">
        <ele>291.666962</ele>
        <time>2007-11-18T19:43:57Z</time>
      </trkpt>
      <trkpt lat="44.37465" lon="5.17432">
        <ele>297.566681</ele>
        <time>2007-11-18T19:43:57Z</time>
      </trkpt>
      <trkpt lat="44.37431" lon="5.17419">
        <ele>299.296539</ele>
        <time>2007-11-18T19:43:57Z</time>
      </trkpt>
      <trkpt lat="44.37391" lon="5.17345">
        <ele>292.373962</ele>
        <time>2007-11-18T19:43:57Z</time>
      </trkpt>
      <trkpt lat="44.3738" lon="5.17289">
        <ele>289.680817</ele>
        <time>2007-11-18T19:43:57Z</time>
      </trkpt>
      <trkpt lat="44.37381" lon="5.17232">
        <ele>286.628571</ele>
        <time>2007-11-18T19:43:57Z</time>
      </trkpt>
      <trkpt lat="44.37373" lon="5.17164">
        <ele>283.923737</ele>
        <time>2007-11-18T19:43:57Z</time>
      </trkpt>
      <trkpt lat="44.37369" lon="5.17044">
        <ele>280.548645</ele>
        <time>2007-11-18T19:43:57Z</time>
      </trkpt>
      <trkpt lat="44.37371" lon="5.1698">
        <ele>280</ele>
        <time>2007-11-18T19:43:57Z</time>
      </trkpt>
      <trkpt lat="44.37343" lon="5.16863">
        <ele>280.39209</ele>
        <time>2007-11-18T19:43:57Z</time>
      </trkpt>
      <trkpt lat="44.37264" lon="5.16746">
        <ele>281.845428</ele>
        <time>2007-11-18T19:43:57Z</time>
      </trkpt>
      <trkpt lat="44.37231" lon="5.1663">
        <ele>282.443237</ele>
        <time>2007-11-18T19:43:57Z</time>
      </trkpt>
      <trkpt lat="44.37231" lon="5.1658">
        <ele>281.202881</ele>
        <time>2007-11-18T19:43:57Z</time>
      </trkpt>
      <trkpt lat="44.37213" lon="5.16521">
        <ele>281.108246</ele>
        <time>2007-11-18T19:43:57Z</time>
      </trkpt>
      <trkpt lat="44.37192" lon="5.1649">
        <ele>281.243866</ele>
        <time>2007-11-18T19:43:57Z</time>
      </trkpt>
      <trkpt lat="44.37113" lon="5.16433">
        <ele>285.863007</ele>
        <time>2007-11-18T19:43:57Z</time>
      </trkpt>
      <trkpt lat="44.37075" lon="5.16421">
        <ele>288.142334</ele>
        <time>2007-11-18T19:43:57Z</time>
      </trkpt>
      <trkpt lat="44.37054" lon="5.16385">
        <ele>287.418427</ele>
        <time>2007-11-18T19:43:57Z</time>
      </trkpt>
      <trkpt lat="44.37046" lon="5.16344">
        <ele>285.62854</ele>
        <time>2007-11-18T19:43:57Z</time>
      </trkpt>
      <trkpt lat="44.37046" lon="5.16294">
        <ele>283.56134</ele>
        <time>2007-11-18T19:43:57Z</time>
      </trkpt>
      <trkpt lat="44.37057" lon="5.1624">
        <ele>282.840973</ele>
        <time>2007-11-18T19:43:57Z</time>
      </trkpt>
      <trkpt lat="44.37087" lon="5.16136">
        <ele>290.705048</ele>
        <time>2007-11-18T19:43:57Z</time>
      </trkpt>
      <trkpt lat="44.37117" lon="5.16109">
        <ele>286.486908</ele>
        <time>2007-11-18T19:43:57Z</time>
      </trkpt>
      <trkpt lat="44.37182" lon="5.16056">
        <ele>287.194702</ele>
        <time>2007-11-18T19:43:57Z</time>
      </trkpt>
      <trkpt lat="44.3719" lon="5.16007">
        <ele>286.39859</ele>
        <time>2007-11-18T19:43:57Z</time>
      </trkpt>
      <trkpt lat="44.37188" lon="5.15961">
        <ele>286.942688</ele>
        <time>2007-11-18T19:43:57Z</time>
      </trkpt>
      <trkpt lat="44.37148" lon="5.15854">
        <ele>294.588806</ele>
        <time>2007-11-18T19:43:57Z</time>
      </trkpt>
      <trkpt lat="44.3713" lon="5.15821">
        <ele>294.641907</ele>
        <time>2007-11-18T19:43:57Z</time>
      </trkpt>
      <trkpt lat="44.37114" lon="5.15772">
        <ele>291.13089</ele>
        <time>2007-11-18T19:43:57Z</time>
      </trkpt>
      <trkpt lat="44.37093" lon="5.15714">
        <ele>290.907349</ele>
        <time>2007-11-18T19:43:57Z</time>
      </trkpt>
      <trkpt lat="44.37056" lon="5.15612">
        <ele>288.627136</ele>
        <time>2007-11-18T19:43:57Z</time>
      </trkpt>
      <trkpt lat="44.37045" lon="5.15534">
        <ele>285.990356</ele>
        <time>2007-11-18T19:43:57Z</time>
      </trkpt>
      <trkpt lat="44.37047" lon="5.15468">
        <ele>283.078766</ele>
        <time>2007-11-18T19:43:57Z</time>
      </trkpt>
      <trkpt lat="44.37016" lon="5.15397">
        <ele>282.831024</ele>
        <time>2007-11-18T19:43:57Z</time>
      </trkpt>
      <trkpt lat="44.36989" lon="5.15376">
        <ele>283.348114</ele>
        <time>2007-11-18T19:43:57Z</time>
      </trkpt>
      <trkpt lat="44.3695" lon="5.15369">
        <ele>283.511902</ele>
        <time>2007-11-18T19:43:57Z</time>
      </trkpt>
      <trkpt lat="44.36855" lon="5.15377">
        <ele>277.292053</ele>
        <time>2007-11-18T19:43:57Z</time>
      </trkpt>
      <trkpt lat="44.36785" lon="5.1539">
        <ele>275.169708</ele>
        <time>2007-11-18T19:43:57Z</time>
      </trkpt>
      <trkpt lat="44.36745" lon="5.15425">
        <ele>274.337311</ele>
        <time>2007-11-18T19:43:57Z</time>
      </trkpt>
      <trkpt lat="44.36707" lon="5.15491">
        <ele>273.140045</ele>
        <time>2007-11-18T19:43:57Z</time>
      </trkpt>
      <trkpt lat="44.36686" lon="5.15545">
        <ele>275.015839</ele>
        <time>2007-11-18T19:43:57Z</time>
      </trkpt>
      <trkpt lat="44.36654" lon="5.15583">
        <ele>278.227142</ele>
        <time>2007-11-18T19:43:57Z</time>
      </trkpt>
      <trkpt lat="44.36586" lon="5.15609">
        <ele>288.091461</ele>
        <time>2007-11-18T19:43:57Z</time>
      </trkpt>
      <trkpt lat="44.36533" lon="5.15611">
        <ele>287.245789</ele>
        <time>2007-11-18T19:43:57Z</time>
      </trkpt>
      <trkpt lat="44.36479" lon="5.15607">
        <ele>286.961212</ele>
        <time>2007-11-18T19:43:57Z</time>
      </trkpt>
      <trkpt lat="44.36453" lon="5.15598">
        <ele>284.403229</ele>
        <time>2007-11-18T19:43:57Z</time>
      </trkpt>
      <trkpt lat="44.36406" lon="5.15572">
        <ele>282.030579</ele>
        <time>2007-11-18T19:43:57Z</time>
      </trkpt>
      <trkpt lat="44.36363" lon="5.15533">
        <ele>279.195038</ele>
        <time>2007-11-18T19:43:57Z</time>
      </trkpt>
      <trkpt lat="44.36334" lon="5.15477">
        <ele>279.078278</ele>
        <time>2007-11-18T19:43:57Z</time>
      </trkpt>
      <trkpt lat="44.36326" lon="5.15417">
        <ele>273.949432</ele>
        <time>2007-11-18T19:43:57Z</time>
      </trkpt>
      <trkpt lat="44.36311" lon="5.15271">
        <ele>271.889404</ele>
        <time>2007-11-18T19:43:57Z</time>
      </trkpt>
      <trkpt lat="44.36292" lon="5.15223">
        <ele>272.311066</ele>
        <time>2007-11-18T19:43:57Z</time>
      </trkpt>
      <trkpt lat="44.36254" lon="5.15201">
        <ele>275.123047</ele>
        <time>2007-11-18T19:43:57Z</time>
      </trkpt>
      <trkpt lat="44.36206" lon="5.15175">
        <ele>277.798462</ele>
        <time>2007-11-18T19:43:57Z</time>
      </trkpt>
      <trkpt lat="44.36099" lon="5.15166">
        <ele>279.638733</ele>
        <time>2007-11-18T19:43:57Z</time>
      </trkpt>
      <trkpt lat="44.36014" lon="5.15108">
        <ele>275.765137</ele>
        <time>2007-11-18T19:43:57Z</time>
      </trkpt>
      <trkpt lat="44.35989" lon="5.15088">
        <ele>276.061829</ele>
        <time>2007-11-18T19:43:57Z</time>
      </trkpt>
      <trkpt lat="44.35971" lon="5.15072">
        <ele>276.683899</ele>
        <time>2007-11-18T19:43:57Z</time>
      </trkpt>
      <trkpt lat="44.35946" lon="5.15038">
        <ele>279.195801</ele>
        <time>2007-11-18T19:43:57Z</time>
      </trkpt>
      <trkpt lat="44.35923" lon="5.14993">
        <ele>281.900513</ele>
        <time>2007-11-18T19:43:57Z</time>
      </trkpt>
      <trkpt lat="44.35901" lon="5.14918">
        <ele>284.178772</ele>
        <time>2007-11-18T19:43:57Z</time>
      </trkpt>
      <trkpt lat="44.3591" lon="5.14831">
        <ele>281.893494</ele>
        <time>2007-11-18T19:43:57Z</time>
      </trkpt>
      <trkpt lat="44.35922" lon="5.14758">
        <ele>279.089325</ele>
        <time>2007-11-18T19:43:57Z</time>
      </trkpt>
      <trkpt lat="44.35915" lon="5.1472">
        <ele>279.472473</ele>
        <time>2007-11-18T19:43:57Z</time>
      </trkpt>
      <trkpt lat="44.35908" lon="5.14671">
        <ele>277.574036</ele>
        <time>2007-11-18T19:43:57Z</time>
      </trkpt>
      <trkpt lat="44.35904" lon="5.14648">
        <ele>276.752625</ele>
        <time>2007-11-18T19:43:57Z</time>
      </trkpt>
      <trkpt lat="44.35918" lon="5.14604">
        <ele>272.067078</ele>
        <time>2007-11-18T19:43:57Z</time>
      </trkpt>
      <trkpt lat="44.35932" lon="5.14575">
        <ele>272.362457</ele>
        <time>2007-11-18T19:43:57Z</time>
      </trkpt>
      <trkpt lat="44.35934" lon="5.14537">
        <ele>274.558929</ele>
        <time>2007-11-18T19:43:57Z</time>
      </trkpt>
      <trkpt lat="44.35935" lon="5.144">
        <ele>279.077515</ele>
        <time>2007-11-18T19:43:57Z</time>
      </trkpt>
      <trkpt lat="44.35933" lon="5.1438">
        <ele>278.993683</ele>
        <time>2007-11-18T19:43:57Z</time>
      </trkpt>
      <trkpt lat="44.35927" lon="5.1436">
        <ele>279.58371</ele>
        <time>2007-11-18T19:43:57Z</time>
      </trkpt>
      <trkpt lat="44.35892" lon="5.143">
        <ele>272.14798</ele>
        <time>2007-11-18T19:43:57Z</time>
      </trkpt>
      <trkpt lat="44.35835" lon="5.14236">
        <ele>273.452332</ele>
        <time>2007-11-18T19:43:57Z</time>
      </trkpt>
      <trkpt lat="44.35828" lon="5.1423">
        <ele>273.300629</ele>
        <time>2007-11-18T19:43:57Z</time>
      </trkpt>
      <trkpt lat="44.35809" lon="5.14205">
        <ele>273.183533</ele>
        <time>2007-11-18T19:43:57Z</time>
      </trkpt>
      <trkpt lat="44.35809" lon="5.14155">
        <ele>265.173615</ele>
        <time>2007-11-18T19:43:57Z</time>
      </trkpt>
      <trkpt lat="44.35828" lon="5.14134">
        <ele>262.058044</ele>
        <time>2007-11-18T19:43:57Z</time>
      </trkpt>
      <trkpt lat="44.35897" lon="5.14058">
        <ele>263.322754</ele>
        <time>2007-11-18T19:43:57Z</time>
      </trkpt>
      <trkpt lat="44.35977" lon="5.14019">
        <ele>265.963715</ele>
        <time>2007-11-18T19:43:57Z</time>
      </trkpt>
      <trkpt lat="44.35993" lon="5.14008">
        <ele>266.48407</ele>
        <time>2007-11-18T19:43:57Z</time>
      </trkpt>
      <trkpt lat="44.36021" lon="5.13982">
        <ele>268.050537</ele>
        <time>2007-11-18T19:43:57Z</time>
      </trkpt>
      <trkpt lat="44.36026" lon="5.13978">
        <ele>268.321381</ele>
        <time>2007-11-18T19:43:57Z</time>
      </trkpt>
      <trkpt lat="44.36028" lon="5.13977">
        <ele>268.382385</ele>
        <time>2007-11-18T19:43:57Z</time>
      </trkpt>
      <trkpt lat="44.36026" lon="5.13982">
        <ele>268.271667</ele>
        <time>2007-11-18T19:43:57Z</time>
      </trkpt>
      <trkpt lat="44.36025" lon="5.13981">
        <ele>268.246429</ele>
        <time>2007-11-18T19:43:57Z</time>
      </trkpt>
    </trkseg>
  </trk>
</gpx>